SCP
0 0 0 -0 0 0 0 0 0 0 0 0 1 1 1 0 3 2 1 1 1 1 2 2 3 3 3 2 3 1 1 1 0 0 0 0 0 0 0 0 0 0 0 1
0 0 0 0 0 0 0 0 0 -0 0 -0 0 0 1 1 1 2 2 1 2 2 2 3 3 1 1 2 3 1 1 1 0 0 0 0 0 0 0 0 0 0 0 0
0 0 0 0 -0 0 0 0 0 0 0 -0 -0 -0 0 0 1 1 0 2 2 2 1 2 3 4 2 2 2 1 1 1 0 0 0 0 0 0 0 0 0 0 0 0
0 0 0 0 0 0 0 0 0 0 0 1 0 0 0 0 3 0 0 2 1 1 1 2 2 3 3 2 1 1 1 1 0 0 0 0 0 0 0 0 -0 0 0 0
0 0 0 0 0 0 0 0 0 0 0 0 0 0 0 0 1 4 2 1 1 1 1 2 2 2 2 1 1 1 1 1 0 0 0 0 0 0 0 0 0 0 0 0
0 0 0 0 0 0 0 0 1 0 0 0 0 0 0 0 0 0 1 1 1 1 1 1 2 1 1 1 1 1 1 1 1 0 0 0 0 0 0 0 0 0 0 0
0 0 0 0 0 0 0 1 1 1 0 0 0 3 0 -0 -1 2 3 2 1 1 1 1 1 2 2 1 1 0 0 0 0 0 0 0 0 0 0 0 0 0 0 0
0 0 0 0 0 1 1 2 2 3 2 1 1 2 3 6 10 7 5 3 2 2 2 1 1 1 1 1 1 1 0 0 0 0 0 0 0 0 0 0 0 0 0 0
0 0 0 0 0 0 0 0 1 1 1 0 1 0 1 9 8 10 7 5 2 2 2 1 1 2 1 1 1 1 1 1 0 0 0 0 0 0 0 0 0 0 0 0
0 0 0 0 0 0 0 0 0 0 0 0 0 0 0 1 7 4 3 2 1 2 1 1 1 1 1 1 1 1 1 0 0 0 0 0 0 0 0 0 0 0 0 0
0 0 0 0 0 0 0 0 0 0 0 0 -0 -0 -0 0 0 1 1 2 1 1 1 1 0 0 0 1 0 0 0 0 0 0 0 0 0 0 0 0 0 0 0 0
0 0 0 0 0 0 0 0 0 0 0 -0 -0 -0 -0 -0 0 1 1 1 1 1 1 1 1 0 0 0 0 0 0 0 0 0 0 0 0 0 0 0 0 -0 -0 -0
0 0 0 0 0 0 0 0 0 0 1 0 -0 -0 -0 0 0 0 0 1 1 1 0 0 0 0 0 0 0 0 0 0 0 0 0 0 0 0 0 0 0 0 -0 -0
0 0 0 0 0 0 0 0 0 0 1 0 -0 0 1 0 0 0 1 0 0 0 0 0 0 0 0 0 0 0 0 0 0 0 0 0 0 0 0 0 0 0 0 -0
0 0 0 0 0 0 0 0 0 0 1 0 0 0 0 -0 0 0 0 0 0 0 0 0 0 0 0 0 0 0 0 0 0 0 0 0 0 0 0 0 0 0 0 0
0 0 0 0 0 0 0 0 0 0 0 1 0 0 0 0 0 0 0 0 0 0 0 0 0 0 0 0 0 0 0 0 0 0 0 0 0 0 0 0 0 0 0 0
0 0 0 0 0 0 0 0 0 0 0 0 1 0 0 0 0 0 0 0 0 0 0 0 0 0 0 0 0 0 0 0 0 0 0 0 0 0 0 0 0 0 0 0
0 0 0 0 0 0 0 0 -0 0 0 1 1 0 0 0 0 0 0 0 0 0 0 0 0 0 0 0 0 0 0 0 0 0 0 0 0 0 0 0 0 0 0 0
0 0 0 0 0 0 0 0 0 0 0 0 0 0 0 0 0 0 0 0 0 0 0 0 0 0 0 0 0 0 0 0 0 0 0 0 0 0 0 0 0 0 0 0
0 0 0 0 0 0 0 0 0 0 0 0 0 0 0 0 0 0 0 0 0 0 0 0 0 -0 -0 0 0 0 0 0 0 0 0 0 0 0 0 0 0 0 0 0
0 0 0 0 0 0 0 0 0 0 0 -0 0 0 0 0 0 0 -0 -0 0 0 0 0 -0 0 0 0 0 0 0 0 0 0 0 0 0 0 0 0 0 0 0 0
0 0 0 0 0 0 0 0 0 0 0 0 0 0 0 0 -0 -0 0 0 0 0 0 0 0 0 0 0 0 0 0 0 0 0 0 0 0 0 0 0 0 0 0 0
0 0 0 0 0 0 0 0 0 0 0 0 0 0 0 0 -0 0 0 0 0 0 -0 0 0 0 0 0 0 0 0 0 0 0 0 0 0 0 0 0 0 0 0 0
0 0 0 0 0 0 0 0 0 0 0 0 0 0 -0 -0 0 0 0 0 0 0 0 0 0 0 0 0 0 0 0 0 0 0 0 0 0 0 0 0 0 0 0 0
0 0 0 0 0 -0 -0 0 0 0 0 0 -0 -0 0 0 0 -0 0 0 0 0 -0 -0 0 0 0 0 -0 -0 0 0 0 0 0 0 0 0 0 0 0 0 0 0
0 0 0 -0 -0 0 0 0 -0 0 0 0 0 0 -0 -0 -0 -0 0 -0 -0 0 0 0 0 0 0 0 0 0 0 0 0 0 0 0 0 0 0 0 0 0 0 0
0 0 0 0 0 -0 0 0 0 -0 -0 -0 0 0 -0 -0 -0 -0 -0 -0 -0 0 0 0 0 0 0 0 0 0 0 0 0 0 0 0 0 0 0 0 0 0 0 0
Wind_Speed_500mb
40 47 51 47 21 40 34 30 23 33 40 30 31 27 25 26 22 22 17 14 17 16 11 7 13 15 25 23 30 29 34 22 24 25 34 27 24 4 13 24 26 23 17 26
41 42 44 52 46 49 21 9 35 45 38 12 27 37 48 36 26 26 18 20 14 18 15 14 6 6 12 19 23 20 21 20 21 24 22 36 26 20 43 14 10 14 20 29
32 36 38 31 49 39 47 24 37 25 30 38 28 15 7 26 27 29 12 26 27 18 21 18 19 30 27 16 23 26 27 26 31 29 28 26 16 14 17 18 18 10 10 17
29 34 47 36 37 26 34 37 19 22 27 36 43 41 44 42 36 32 46 22 18 31 27 24 20 25 27 19 30 26 27 21 7 9 17 14 12 14 11 14 13 14 16 11
27 30 44 46 21 21 22 20 23 26 25 52 19 44 63 59 22 19 34 30 28 25 29 35 33 30 30 30 21 21 17 16 8 6 8 7 4 2 1 3 7 10 15 19
20 35 42 34 29 41 17 14 14 6 6 18 9 6 11 40 68 34 30 29 27 26 31 37 42 34 34 34 27 24 16 13 17 11 4 2 0 5 6 4 8 9 13 17
18 23 18 26 43 46 20 16 34 32 37 7 9 7 65 70 90 41 36 39 41 31 37 41 44 43 39 39 33 27 22 16 17 15 9 6 4 5 4 2 4 9 11 16
17 20 28 43 17 13 29 54 54 54 53 39 38 32 19 39 43 43 45 52 52 47 44 40 40 42 44 39 30 23 25 20 23 27 13 5 2 2 4 5 3 6 13 15
9 8 18 27 33 20 27 37 49 57 59 66 61 90 34 33 47 47 51 46 52 53 47 41 42 42 33 27 26 24 22 18 14 9 4 3 7 14 14 15 16 11 9 10
18 19 25 21 26 27 29 37 44 47 51 55 56 58 48 38 39 40 39 56 58 53 46 42 36 30 26 22 16 14 14 8 9 12 11 19 18 6 4 3 6 7 3 5
17 20 37 11 39 41 42 42 43 45 49 34 52 50 48 85 37 35 50 53 57 56 52 46 32 28 19 19 9 6 6 10 15 8 14 11 12 5 11 13 22 20 7 13
14 24 25 36 49 53 43 47 49 56 36 44 47 38 46 70 80 48 54 54 55 55 44 38 37 25 27 18 10 6 15 10 4 11 8 7 10 13 16 19 18 21 19 23
19 28 36 40 43 42 46 48 47 43 18 34 45 23 17 21 46 37 35 46 42 40 35 36 30 17 9 8 11 14 9 7 7 11 4 7 9 9 13 21 21 21 19 11
25 35 35 34 46 45 48 43 39 42 20 17 19 17 24 24 54 32 41 38 37 36 35 31 22 16 11 11 11 10 5 5 6 4 5 8 5 13 14 16 20 24 15 19
31 36 45 48 50 48 49 46 45 50 21 19 7 10 24 11 28 15 26 12 14 21 22 19 18 17 16 12 9 7 7 3 1 6 10 12 17 12 17 21 25 28 29 34
27 31 38 41 45 49 49 50 51 46 20 19 7 24 30 34 22 27 24 32 32 26 23 19 16 15 16 10 8 5 4 5 10 8 6 10 24 22 18 25 23 29 30 28
28 31 36 34 38 48 50 48 53 37 17 29 36 37 38 38 41 37 28 27 17 22 19 16 14 14 14 10 2 5 15 23 12 18 22 26 28 25 24 32 35 34 31 31
24 30 33 37 37 39 42 47 56 25 20 16 34 38 37 42 43 33 34 21 21 17 15 15 15 13 11 13 4 9 15 18 24 32 35 32 31 28 31 33 39 30 37 35
27 30 29 33 35 38 39 40 40 24 15 21 39 34 31 30 31 30 27 23 20 18 15 12 20 20 13 12 7 12 17 22 27 19 17 16 15 19 25 32 33 34 29 25
30 27 29 32 31 33 37 34 29 19 10 37 42 38 42 38 32 24 18 19 20 19 15 17 8 13 9 11 11 17 23 14 20 24 27 36 27 25 31 38 30 38 23 26
28 28 22 25 30 31 30 27 18 6 17 45 45 44 42 40 30 16 31 19 19 18 16 14 14 14 17 3 18 18 21 22 21 20 20 21 20 19 22 25 26 15 14 17
27 29 25 24 26 24 24 22 14 14 16 16 23 27 28 27 20 20 15 21 23 9 12 16 16 16 12 19 13 14 12 16 18 18 15 16 16 15 20 18 16 17 22 16
25 26 28 26 23 19 19 18 16 15 25 23 21 24 24 18 18 27 21 13 20 7 5 3 4 12 23 24 9 16 15 16 21 19 23 18 20 24 20 16 21 18 21 26
23 25 20 17 19 18 10 15 15 23 30 29 25 23 24 16 15 14 16 16 6 3 7 12 9 13 15 7 13 13 14 15 18 18 19 26 27 28 24 23 25 27 29 29
17 10 6 8 10 4 5 5 18 33 35 29 22 15 12 11 16 4 19 12 6 5 7 8 6 10 13 8 14 19 18 17 17 22 21 24 18 25 26 34 37 37 34 32
13 7 6 8 14 20 19 25 33 29 31 24 19 14 15 17 11 11 10 6 6 6 6 5 10 13 17 19 18 18 16 25 32 27 27 30 32 28 27 33 38 38 35 38
11 10 9 7 19 26 27 26 30 27 23 16 21 17 19 12 7 2 5 12 10 8 7 11 7 26 11 18 21 27 33 31 22 33 39 35 31 31 31 44 34 24 43 41
Wind_Direction_500mb
280 287 290 299 216 269 260 326 1 338 28 6 4 19 12 175 132 155 167 187 147 146 153 118 133 152 171 186 191 187 196 205 147 70 4 355 226 97 273 229 222 230 247 263
271 282 291 287 285 289 228 264 312 301 317 36 355 6 14 29 179 132 155 159 154 141 148 130 162 210 198 185 187 198 212 180 166 148 57 231 255 265 251 234 197 343 328 294
285 294 291 296 288 299 316 311 342 335 360 341 302 301 315 323 311 348 207 164 157 162 182 143 184 163 174 186 189 189 182 185 165 159 186 193 225 239 273 248 274 314 276 269
276 286 278 286 283 313 49 343 334 337 325 50 18 10 320 329 336 148 223 169 184 189 160 146 170 171 155 169 167 166 164 167 215 203 210 214 229 247 271 304 297 283 290 290
254 250 267 273 320 356 355 278 232 217 242 275 15 5 338 339 317 289 190 191 186 167 153 154 151 159 157 144 130 141 122 101 79 85 128 153 172 228 61 344 300 269 257 253
267 275 282 302 15 342 311 267 37 176 101 335 302 113 158 256 230 196 169 161 151 153 149 156 145 142 137 136 132 134 140 150 123 128 150 104 229 321 325 269 257 290 265 266
300 300 295 2 354 345 290 1 336 310 302 150 196 255 183 188 230 175 161 158 153 153 151 145 136 136 131 130 130 127 133 135 126 106 99 117 101 60 58 138 232 269 263 287
249 262 297 26 331 24 356 3 355 344 339 326 312 290 208 179 155 165 163 155 156 147 140 141 140 139 130 127 131 149 133 124 122 122 124 86 73 325 292 316 285 317 348 8
332 8 81 50 59 40 3 342 340 331 336 353 359 355 276 163 175 166 152 142 138 131 130 129 139 139 139 134 137 134 138 135 124 130 149 58 60 49 41 7 20 8 329 319
344 326 44 38 20 1 339 327 324 321 334 338 338 327 0 305 153 149 153 141 134 130 136 132 129 127 132 138 136 143 127 117 106 85 71 74 90 46 70 220 232 237 258 319
303 350 353 316 351 339 322 314 316 321 326 329 327 331 329 294 277 156 142 132 140 144 140 138 139 119 153 135 165 139 112 90 87 51 57 38 48 1 358 346 4 6 323 283
334 354 339 331 325 320 324 327 320 322 324 342 325 328 329 295 282 160 159 156 151 153 146 142 146 153 156 139 134 99 65 81 145 97 46 9 17 341 339 336 343 355 5 16
350 341 323 316 313 314 314 315 317 317 318 345 328 334 347 291 277 169 144 153 145 141 144 151 152 142 141 155 154 154 130 100 18 72 15 352 343 336 331 328 325 326 321 347
330 317 308 308 310 309 303 308 315 311 310 347 22 48 55 25 2 103 122 128 140 145 144 143 145 155 151 154 163 142 102 80 119 12 333 322 306 342 317 318 323 337 356 341
327 313 303 304 304 309 312 314 326 316 290 343 354 160 24 72 198 284 130 157 156 128 118 118 128 147 149 164 141 107 105 336 86 330 307 306 306 289 315 308 322 317 312 315
311 315 317 315 315 314 313 313 316 313 314 71 221 160 145 158 181 182 162 139 129 130 139 156 168 159 155 163 163 162 152 188 245 300 311 284 292 290 284 290 287 298 299 301
312 313 316 317 319 321 318 316 310 318 332 189 163 156 156 155 150 134 118 127 129 144 153 161 180 187 170 186 208 261 287 284 275 270 261 274 274 269 269 276 290 283 276 301
307 306 304 309 317 319 317 314 316 319 298 190 144 153 159 156 144 140 136 147 146 157 159 170 179 190 198 223 287 295 312 313 307 292 275 276 279 282 278 278 285 280 295 294
306 305 310 318 316 317 316 316 310 310 245 191 154 154 150 149 137 128 149 158 163 166 174 184 198 197 204 224 247 294 304 307 309 317 338 334 316 297 292 287 291 300 292 270
303 306 311 304 314 315 313 314 325 299 222 147 149 144 138 137 142 142 167 181 197 184 177 197 158 172 167 218 287 309 309 324 324 320 318 318 301 298 300 305 290 289 287 287
300 306 304 294 305 314 316 320 319 0 165 165 145 151 153 159 150 188 182 176 158 173 177 225 207 242 189 179 327 318 338 326 319 318 327 326 321 301 308 325 337 283 273 317
306 308 311 299 297 302 303 313 307 220 161 130 141 160 164 172 167 175 126 163 173 130 211 253 213 198 253 304 326 306 317 331 317 311 323 328 320 309 326 320 304 303 299 290
303 299 290 285 285 290 300 298 275 222 187 170 156 148 148 150 164 151 150 150 175 158 200 196 204 288 301 304 273 287 294 309 313 309 302 296 289 305 277 303 297 297 299 296
308 300 284 297 308 292 275 299 233 186 163 143 137 134 160 193 152 160 152 175 170 338 181 236 264 313 316 260 254 276 315 298 284 296 303 314 304 303 293 281 285 286 291 306
313 299 313 352 2 37 211 297 150 164 149 138 148 163 147 128 136 165 166 148 331 354 289 235 284 326 319 284 297 278 287 283 294 314 303 293 301 300 284 283 290 282 284 292
358 359 67 59 73 82 109 123 131 119 103 135 161 159 160 155 148 178 187 186 251 331 283 253 282 284 297 289 301 309 300 301 294 306 292 300 292 303 293 302 304 282 282 312
59 52 76 95 102 77 144 140 149 146 152 174 166 169 184 165 155 181 186 233 235 244 304 286 212 325 268 286 289 329 302 317 294 309 299 293 288 301 293 308 300 300 308 306
Wind_Speed_850mb
40 47 51 47 21 40 34 30 23 33 40 30 31 27 25 26 22 22 17 14 17 16 11 7 13 15 25 23 30 29 34 22 24 25 34 27 24 4 13 24 26 23 17 26
41 42 44 52 46 49 21 9 35 45 38 12 27 37 48 36 26 26 18 20 14 18 15 14 6 6 12 19 23 20 21 20 21 24 22 36 26 20 43 14 10 14 20 29
32 36 38 31 49 39 47 24 37 25 30 38 28 15 7 26 27 29 12 26 27 18 21 18 19 30 27 16 23 26 27 26 31 29 28 26 16 14 17 18 18 10 10 17
29 34 47 36 37 26 34 37 19 22 27 36 43 41 44 42 36 32 46 22 18 31 27 24 20 25 27 19 30 26 27 21 7 9 17 14 12 14 11 14 13 14 16 11
27 30 44 46 21 21 22 20 23 26 25 52 19 44 63 59 22 19 34 30 28 25 29 35 33 30 30 30 21 21 17 16 8 6 8 7 4 2 1 3 7 10 15 19
20 35 42 34 29 41 17 14 14 6 6 18 9 6 11 40 68 34 30 29 27 26 31 37 42 34 34 34 27 24 16 13 17 11 4 2 0 5 6 4 8 9 13 17
18 23 18 26 43 46 20 16 34 32 37 7 9 7 65 70 90 41 36 39 41 31 37 41 44 43 39 39 33 27 22 16 17 15 9 6 4 5 4 2 4 9 11 16
17 20 28 43 17 13 29 54 54 54 53 39 38 32 19 39 43 43 45 52 52 47 44 40 40 42 44 39 30 23 25 20 23 27 13 5 2 2 4 5 3 6 13 15
9 8 18 27 33 20 27 37 49 57 59 66 61 90 34 33 47 47 51 46 52 53 47 41 42 42 33 27 26 24 22 18 14 9 4 3 7 14 14 15 16 11 9 10
18 19 25 21 26 27 29 37 44 47 51 55 56 58 48 38 39 40 39 56 58 53 46 42 36 30 26 22 16 14 14 8 9 12 11 19 18 6 4 3 6 7 3 5
17 20 37 11 39 41 42 42 43 45 49 34 52 50 48 85 37 35 50 53 57 56 52 46 32 28 19 19 9 6 6 10 15 8 14 11 12 5 11 13 22 20 7 13
14 24 25 36 49 53 43 47 49 56 36 44 47 38 46 70 80 48 54 54 55 55 44 38 37 25 27 18 10 6 15 10 4 11 8 7 10 13 16 19 18 21 19 23
19 28 36 40 43 42 46 48 47 43 18 34 45 23 17 21 46 37 35 46 42 40 35 36 30 17 9 8 11 14 9 7 7 11 4 7 9 9 13 21 21 21 19 11
25 35 35 34 46 45 48 43 39 42 20 17 19 17 24 24 54 32 41 38 37 36 35 31 22 16 11 11 11 10 5 5 6 4 5 8 5 13 14 16 20 24 15 19
31 36 45 48 50 48 49 46 45 50 21 19 7 10 24 11 28 15 26 12 14 21 22 19 18 17 16 12 9 7 7 3 1 6 10 12 17 12 17 21 25 28 29 34
27 31 38 41 45 49 49 50 51 46 20 19 7 24 30 34 22 27 24 32 32 26 23 19 16 15 16 10 8 5 4 5 10 8 6 10 24 22 18 25 23 29 30 28
28 31 36 34 38 48 50 48 53 37 17 29 36 37 38 38 41 37 28 27 17 22 19 16 14 14 14 10 2 5 15 23 12 18 22 26 28 25 24 32 35 34 31 31
24 30 33 37 37 39 42 47 56 25 20 16 34 38 37 42 43 33 34 21 21 17 15 15 15 13 11 13 4 9 15 18 24 32 35 32 31 28 31 33 39 30 37 35
27 30 29 33 35 38 39 40 40 24 15 21 39 34 31 30 31 30 27 23 20 18 15 12 20 20 13 12 7 12 17 22 27 19 17 16 15 19 25 32 33 34 29 25
30 27 29 32 31 33 37 34 29 19 10 37 42 38 42 38 32 24 18 19 20 19 15 17 8 13 9 11 11 17 23 14 20 24 27 36 27 25 31 38 30 38 23 26
28 28 22 25 30 31 30 27 18 6 17 45 45 44 42 40 30 16 31 19 19 18 16 14 14 14 17 3 18 18 21 22 21 20 20 21 20 19 22 25 26 15 14 17
27 29 25 24 26 24 24 22 14 14 16 16 23 27 28 27 20 20 15 21 23 9 12 16 16 16 12 19 13 14 12 16 18 18 15 16 16 15 20 18 16 17 22 16
25 26 28 26 23 19 19 18 16 15 25 23 21 24 24 18 18 27 21 13 20 7 5 3 4 12 23 24 9 16 15 16 21 19 23 18 20 24 20 16 21 18 21 26
23 25 20 17 19 18 10 15 15 23 30 29 25 23 24 16 15 14 16 16 6 3 7 12 9 13 15 7 13 13 14 15 18 18 19 26 27 28 24 23 25 27 29 29
17 10 6 8 10 4 5 5 18 33 35 29 22 15 12 11 16 4 19 12 6 5 7 8 6 10 13 8 14 19 18 17 17 22 21 24 18 25 26 34 37 37 34 32
13 7 6 8 14 20 19 25 33 29 31 24 19 14 15 17 11 11 10 6 6 6 6 5 10 13 17 19 18 18 16 25 32 27 27 30 32 28 27 33 38 38 35 38
11 10 9 7 19 26 27 26 30 27 23 16 21 17 19 12 7 2 5 12 10 8 7 11 7 26 11 18 21 27 33 31 22 33 39 35 31 31 31 44 34 24 43 41
Wind_Direction_850mb
280 287 290 299 216 269 260 326 1 338 28 6 4 19 12 175 132 155 167 187 147 146 153 118 133 152 171 186 191 187 196 205 147 70 4 355 226 97 273 229 222 230 247 263
271 282 291 287 285 289 228 264 312 301 317 36 355 6 14 29 179 132 155 159 154 141 148 130 162 210 198 185 187 198 212 180 166 148 57 231 255 265 251 234 197 343 328 294
285 294 291 296 288 299 316 311 342 335 360 341 302 301 315 323 311 348 207 164 157 162 182 143 184 163 174 186 189 189 182 185 165 159 186 193 225 239 273 248 274 314 276 269
276 286 278 286 283 313 49 343 334 337 325 50 18 10 320 329 336 148 223 169 184 189 160 146 170 171 155 169 167 166 164 167 215 203 210 214 229 247 271 304 297 283 290 290
254 250 267 273 320 356 355 278 232 217 242 275 15 5 338 339 317 289 190 191 186 167 153 154 151 159 157 144 130 141 122 101 79 85 128 153 172 228 61 344 300 269 257 253
267 275 282 302 15 342 311 267 37 176 101 335 302 113 158 256 230 196 169 161 151 153 149 156 145 142 137 136 132 134 140 150 123 128 150 104 229 321 325 269 257 290 265 266
300 300 295 2 354 345 290 1 336 310 302 150 196 255 183 188 230 175 161 158 153 153 151 145 136 136 131 130 130 127 133 135 126 106 99 117 101 60 58 138 232 269 263 287
249 262 297 26 331 24 356 3 355 344 339 326 312 290 208 179 155 165 163 155 156 147 140 141 140 139 130 127 131 149 133 124 122 122 124 86 73 325 292 316 285 317 348 8
332 8 81 50 59 40 3 342 340 331 336 353 359 355 276 163 175 166 152 142 138 131 130 129 139 139 139 134 137 134 138 135 124 130 149 58 60 49 41 7 20 8 329 319
344 326 44 38 20 1 339 327 324 321 334 338 338 327 0 305 153 149 153 141 134 130 136 132 129 127 132 138 136 143 127 117 106 85 71 74 90 46 70 220 232 237 258 319
303 350 353 316 351 339 322 314 316 321 326 329 327 331 329 294 277 156 142 132 140 144 140 138 139 119 153 135 165 139 112 90 87 51 57 38 48 1 358 346 4 6 323 283
334 354 339 331 325 320 324 327 320 322 324 342 325 328 329 295 282 160 159 156 151 153 146 142 146 153 156 139 134 99 65 81 145 97 46 9 17 341 339 336 343 355 5 16
350 341 323 316 313 314 314 315 317 317 318 345 328 334 347 291 277 169 144 153 145 141 144 151 152 142 141 155 154 154 130 100 18 72 15 352 343 336 331 328 325 326 321 347
330 317 308 308 310 309 303 308 315 311 310 347 22 48 55 25 2 103 122 128 140 145 144 143 145 155 151 154 163 142 102 80 119 12 333 322 306 342 317 318 323 337 356 341
327 313 303 304 304 309 312 314 326 316 290 343 354 160 24 72 198 284 130 157 156 128 118 118 128 147 149 164 141 107 105 336 86 330 307 306 306 289 315 308 322 317 312 315
311 315 317 315 315 314 313 313 316 313 314 71 221 160 145 158 181 182 162 139 129 130 139 156 168 159 155 163 163 162 152 188 245 300 311 284 292 290 284 290 287 298 299 301
312 313 316 317 319 321 318 316 310 318 332 189 163 156 156 155 150 134 118 127 129 144 153 161 180 187 170 186 208 261 287 284 275 270 261 274 274 269 269 276 290 283 276 301
307 306 304 309 317 319 317 314 316 319 298 190 144 153 159 156 144 140 136 147 146 157 159 170 179 190 198 223 287 295 312 313 307 292 275 276 279 282 278 278 285 280 295 294
306 305 310 318 316 317 316 316 310 310 245 191 154 154 150 149 137 128 149 158 163 166 174 184 198 197 204 224 247 294 304 307 309 317 338 334 316 297 292 287 291 300 292 270
303 306 311 304 314 315 313 314 325 299 222 147 149 144 138 137 142 142 167 181 197 184 177 197 158 172 167 218 287 309 309 324 324 320 318 318 301 298 300 305 290 289 287 287
300 306 304 294 305 314 316 320 319 0 165 165 145 151 153 159 150 188 182 176 158 173 177 225 207 242 189 179 327 318 338 326 319 318 327 326 321 301 308 325 337 283 273 317
306 308 311 299 297 302 303 313 307 220 161 130 141 160 164 172 167 175 126 163 173 130 211 253 213 198 253 304 326 306 317 331 317 311 323 328 320 309 326 320 304 303 299 290
303 299 290 285 285 290 300 298 275 222 187 170 156 148 148 150 164 151 150 150 175 158 200 196 204 288 301 304 273 287 294 309 313 309 302 296 289 305 277 303 297 297 299 296
308 300 284 297 308 292 275 299 233 186 163 143 137 134 160 193 152 160 152 175 170 338 181 236 264 313 316 260 254 276 315 298 284 296 303 314 304 303 293 281 285 286 291 306
313 299 313 352 2 37 211 297 150 164 149 138 148 163 147 128 136 165 166 148 331 354 289 235 284 326 319 284 297 278 287 283 294 314 303 293 301 300 284 283 290 282 284 292
358 359 67 59 73 82 109 123 131 119 103 135 161 159 160 155 148 178 187 186 251 331 283 253 282 284 297 289 301 309 300 301 294 306 292 300 292 303 293 302 304 282 282 312
59 52 76 95 102 77 144 140 149 146 152 174 166 169 184 165 155 181 186 233 235 244 304 286 212 325 268 286 289 329 302 317 294 309 299 293 288 301 293 308 300 300 308 306